User: anonymous   Login
Location: Unspecified
(0.0000°N, 0.0000°E)
Time: 20:56:29
(UTC+01:00)
Language:

SWIFT - Orbit

View from above orbital plane
View from above orbital plane
View from above satellite
View from above satellite

Ground track
Ground track

The orbit data is extracted from the following two-line orbital elements,

1 28485U 04047A   17059.55754322  .00001453  00000-0  71539-4 0  9999
2 28485  20.5560 174.0815 0011247 307.1661  52.7746 15.03594565671831
Epoch (UTC): 28 February 2017 13:22:51
Eccentricity: 0.0011247
inclination: 20.5560°
perigee height: 548 km
apogee height: 563 km
right ascension of ascending node: 174.0815°
argument of perigee: 307.1661°
revolutions per day: 15.03594565
mean anomaly at epoch: 52.7746°
orbit number at epoch: 67183

The dashed part of the orbit path shows where the satellite is in the earth's shadow,  

DLR